Wetterdaten Frühling 2022

Datum T max T min Regen
01.03.2022 7.8 °C -3.5 °C 0 mm
02.03.2022 6.8 °C -2.9 °C 0 mm
03.03.2022 10.6 °C -3.8 °C 0 mm
04.03.2022 9.6 °C -4.2 °C 0 mm
05.03.2022 7.6 °C -4.6 °C 0 mm
06.03.2022 7.5 °C -4.2 °C 0 mm
07.03.2022 5.3 °C -3.1 °C 0 mm
08.03.2022 10.1 °C -5.1 °C 0 mm
09.03.2022 12.4 °C -4.3 °C 0 mm
10.03.2022 15.4 °C -2.2 °C 0 mm
11.03.2022 14.6 °C 0.8 °C 0 mm
12.03.2022 15 °C 2.6 °C 0 mm
13.03.2022 17.1 °C -0.4 °C 0 mm
14.03.2022 14.2 °C 4.4 °C 1.4 mm
15.03.2022 9.4 °C 3.9 °C 4.4 mm
16.03.2022 12.1 °C 6.3 °C 0 mm
17.03.2022 10.9 °C 7.3 °C 1 mm
18.03.2022 12.2 °C 5.7 °C 0 mm
19.03.2022 12.2 °C 3.5 °C 0 mm
20.03.2022 17.3 °C 2.4 °C 0 mm
21.03.2022 16.4 °C 2.4 °C 0 mm
22.03.2022 17.1 °C -0.9 °C 0 mm
23.03.2022 18.6 °C 0.1 °C 0 mm
24.03.2022 19.5 °C 0.4 °C 0 mm
25.03.2022 19.2 °C 1.4 °C 0 mm
26.03.2022 19.3 °C 1.8 °C 0 mm
27.03.2022 20.7 °C 1.1 °C 0 mm
28.03.2022 21.3 °C 3.8 °C 0 mm
29.03.2022 17.4 °C 4.8 °C 0 mm
30.03.2022 11.8 °C 7.7 °C 2.6 mm
31.03.2022 9.4 °C 4.7 °C 7.6 mm
01.04.2022 5.3 °C 0.1 °C 10.4 mm
02.04.2022 0.8 °C -0.2 °C 2.4 mm
03.04.2022 4.6 °C -0.4 °C 0.8 mm
04.04.2022 8.8 °C -3.3 °C 0 mm
05.04.2022 10 °C 4.3 °C 11.2 mm
06.04.2022 16.2 °C 8.8 °C 0 mm
07.04.2022 14.6 °C 9.3 °C 5.2 mm
08.04.2022 10.1 °C 3.4 °C 24.6 mm
09.04.2022 9.9 °C 0.4 °C 4.2 mm
10.04.2022 9.3 °C 2.6 °C 0.4 mm
11.04.2022 16.1 °C 0.4 °C 0.2 mm
12.04.2022 22.2 °C 5.4 °C 0 mm
13.04.2022 23.9 °C 8.5 °C 0 mm
14.04.2022 21.2 °C 7.9 °C 0 mm
15.04.2022 20.1 °C 8.8 °C 0 mm
16.04.2022 14.2 °C 5.2 °C 0 mm
17.04.2022 15.7 °C 2.3 °C 0 mm
18.04.2022 16.7 °C 1.9 °C 0 mm
19.04.2022 17.9 °C 2.9 °C 0 mm
20.04.2022 15.2 °C 2.7 °C 0 mm
21.04.2022 16.8 °C 3.4 °C 0 mm
22.04.2022 19.3 °C 4.3 °C 0 mm
23.04.2022 15 °C 7.1 °C 0 mm
24.04.2022 11.1 °C 7.4 °C 14 mm
25.04.2022 13.7 °C 8.3 °C 0.6 mm
26.04.2022 13.6 °C 8.1 °C 4.6 mm
27.04.2022 15.6 °C 7.6 °C 0.4 mm
28.04.2022 18.9 °C 3.6 °C 0 mm
29.04.2022 19.6 °C 5.2 °C 0 mm
30.04.2022 11.8 °C 9.1 °C 1 mm
01.05.2022 16.1 °C 8.6 °C 0 mm
02.05.2022 19.1 °C 7.2 °C 0 mm
03.05.2022 20.9 °C 7.9 °C 0 mm
04.05.2022 21 °C 8.8 °C 17.6 mm
05.05.2022 15.7 °C 9.9 °C 0.2 mm
06.05.2022 18.2 °C 10.8 °C 2 mm
07.05.2022 21.2 °C 6.6 °C 0 mm
08.05.2022 20.9 °C 8 °C 0 mm
09.05.2022 23.4 °C 8.8 °C 0 mm
10.05.2022 25.6 °C 11.2 °C 0 mm
11.05.2022 29.2 °C 13.1 °C 0 mm
12.05.2022 24.8 °C 17.4 °C 0.4 mm
13.05.2022 22.4 °C 15.7 °C 0.4 mm
14.05.2022 23.8 °C 9.1 °C 0 mm
15.05.2022 26.9 °C 9.3 °C 0 mm
16.05.2022 25 °C 14.8 °C 0.6 mm
17.05.2022 25.4 °C 12.4 °C 0 mm
18.05.2022 27.6 °C 13 °C 0 mm
19.05.2022 30.6 °C 13.7 °C 11.6 mm
20.05.2022 31.9 °C 15.9 °C 2.8 mm
21.05.2022 21.6 °C 13 °C 0 mm
22.05.2022 23.6 °C 11.1 °C 0 mm
23.05.2022 23.3 °C 14.1 °C 6 mm
24.05.2022 20.1 °C 12.9 °C 2.2 mm
25.05.2022 21.9 °C 12.7 °C 0 mm
26.05.2022 20.3 °C 14.1 °C 0 mm
27.05.2022 20.3 °C 14.1 °C 0 mm
28.05.2022 17.8 °C 9.2 °C 0.4 mm
29.05.2022 14.8 °C 9.6 °C 0 mm
30.05.2022 19.1 °C 4.4 °C 0 mm
31.05.2022 21.2 °C 6.5 °C 0 mm
 Hinweis zur Datenqualität
∅ Temperatur

11 °C

Abweichung vom Mittel

+0.9 °C

Niederschlag

141.2 mm

Abweichung vom Mittel

81 %

31.9 °C

Lufttemperatur
20.05.2022

1040 hPa

Luftdruck
18.03.2022

40.3 km/h

Windböen
07.04.2022

141.19998 mm

Niederschlag
 

-5.1 °C

Lufttemperatur
08.03.2022

-5 °C

Bodentemperatur 5cm
08.03.2022

992 hPa

Luftdruck
07.04.2022
 Hinweis zur Datenqualität